Wind_Speed
30 33 35 35 34 34 33 33 34 35 34 33 32 31 30 31 31 33 34 35 36 38 39 40 41 42 43 44 44 44 45 46 46 46 47 47 47 47 46 45 45 45 44
30 31 30 29 28 31 31 31 34 35 34 32 32 32 32 33 34 36 37 38 39 39 40 42 43 44 46 47 47 48 50 51 51 51 52 53 53 54 53 53 52 52 52
29 25 27 26 26 29 30 32 35 37 36 35 34 35 36 37 38 39 40 40 41 41 43 44 45 46 48 50 50 52 54 55 56 57 58 58 58 58 57 58 58 58 58
25 26 27 27 29 31 33 37 40 40 37 36 35 36 38 39 40 41 41 42 43 44 45 46 48 50 52 54 57 59 61 62 63 65 66 67 67 67 67 66 66 65 65
26 29 30 32 34 35 39 42 43 41 39 38 37 39 40 41 42 42 43 45 46 48 49 52 54 57 60 62 64 66 68 69 70 71 73 74 75 75 74 73 72 72 71
30 32 34 36 38 40 42 44 45 44 42 39 39 40 42 42 43 45 47 49 51 53 56 59 61 64 66 68 69 71 72 73 74 75 75 76 77 78 78 78 77 77 77
32 35 37 39 42 43 44 46 45 43 42 40 40 42 44 46 47 49 52 55 57 60 63 65 67 69 71 72 73 74 75 76 77 78 79 80 81 82 83 84 84 85 85
34 37 40 41 43 44 44 41 39 39 41 42 43 45 46 48 51 54 57 59 62 64 66 68 70 71 73 73 74 75 76 78 78 79 81 84 85 87 89 90 91 92 92
38 40 41 42 42 40 37 37 39 41 44 47 49 51 53 54 55 56 59 62 64 65 67 68 70 71 72 73 75 77 79 80 82 84 86 88 89 90 92 94 96 97 98
39 41 42 41 38 37 38 40 43 45 47 50 54 59 62 65 66 65 63 64 66 67 68 68 69 71 73 75 78 80 83 84 88 91 93 95 96 97 99 99 101 103 104
41 42 40 38 39 39 41 44 47 49 52 55 58 61 64 67 71 73 71 69 67 67 68 70 73 76 80 82 85 88 91 95 98 101 102 104 105 106 107 107 106 106 107
41 39 38 39 41 42 44 46 49 53 56 59 62 65 67 68 68 69 70 71 74 75 76 77 81 86 89 92 95 100 105 108 110 111 111 111 111 111 111 111 110 110 110
39 39 40 41 42 44 47 50 53 57 60 63 66 67 68 67 68 70 73 75 77 79 82 85 90 95 99 104 109 114 118 119 119 118 115 112 109 106 105 104 103 104 104
39 40 42 43 45 48 51 55 58 61 65 67 67 66 65 66 69 73 79 83 85 86 87 92 97 104 109 114 118 122 123 120 117 112 108 104 100 97 95 93 93 93 94
40 41 43 46 49 52 55 58 61 65 67 67 65 65 66 69 73 79 84 90 95 97 94 98 106 112 118 121 120 118 113 107 101 96 92 87 84 82 82 82 82 83 83
42 43 46 49 53 56 59 63 67 68 67 65 65 67 71 75 80 85 90 95 101 107 107 107 114 119 120 116 106 98 92 88 83 79 78 79 80 79 78 77 76 76 75
45 47 50 53 56 60 64 67 69 68 65 65 68 72 77 82 86 90 96 102 108 115 120 117 117 112 102 94 84 78 75 76 77 77 78 79 78 75 72 71 71 70 71
48 50 53 56 60 64 68 69 67 65 66 69 74 79 83 87 92 98 104 110 115 120 121 116 100 85 76 72 70 67 68 72 77 77 73 69 67 66 66 67 68 68 69
51 53 56 60 64 68 69 67 65 66 69 74 80 85 90 94 100 106 112 117 120 116 106 93 79 69 65 63 64 65 68 71 69 63 59 59 57 57 57 59 60 61 62
53 56 60 65 68 69 67 65 66 69 74 80 86 92 98 103 108 114 118 119 113 98 85 77 71 65 62 62 64 66 65 59 52 48 45 44 46 49 51 52 51 51 52
55 59 64 68 70 67 65 66 69 74 80 85 92 99 105 110 115 119 117 107 95 86 81 77 73 70 67 67 69 68 59 49 40 40 42 42 47 49 50 47 42 39 39
59 64 69 69 66 65 67 71 76 80 86 93 99 106 111 115 118 112 99 91 89 87 83 78 75 71 68 67 66 58 51 44 36 37 45 43 49 46 42 36 30 25 22
63 68 68 64 64 67 72 77 82 87 94 101 107 112 115 115 106 95 90 88 84 80 76 72 67 63 60 57 52 47 45 40 35 35 39 36 37 34 30 22 15 10 12
66 66 63 64 67 72 77 81 86 93 100 105 110 115 112 100 90 88 86 80 75 68 60 53 49 47 45 43 42 40 35 29 27 29 29 24 27 23 16 10 6 8 15
63 61 62 66 72 77 81 86 92 98 103 108 113 108 96 88 85 81 75 69 60 47 38 32 31 33 34 36 36 31 28 25 24 28 28 24 22 17 12 8 8 11 17
58 60 65 71 75 81 87 92 97 102 107 110 103 90 84 81 75 69 62 53 39 30 25 22 23 25 28 30 30 30 27 25 22 24 28 23 20 16 11 11 12 13 17
Wind_Direction
298 297 293 291 289 291 293 295 298 299 300 297 292 290 287 284 283 283 282 281 280 279 280 280 279 278 277 275 274 274 273 271 269 267 266 265 264 264 262 261 261 262 261
298 301 297 294 290 288 291 296 300 300 298 294 292 290 288 287 286 286 285 283 281 280 277 275 275 275 276 276 275 274 273 273 273 272 271 271 270 269 268 267 265 264 264
300 300 301 300 295 293 296 299 302 303 298 293 290 288 287 286 286 285 284 284 283 282 281 281 281 279 279 277 277 277 277 277 276 276 274 272 271 271 271 271 270 268 266
299 300 301 301 299 297 298 301 303 301 298 294 291 288 286 285 284 284 283 283 283 283 284 284 283 283 283 283 284 283 282 281 279 278 276 275 274 273 272 271 270 269 267
297 298 298 299 298 297 299 302 301 298 296 292 289 287 286 286 285 285 284 284 284 284 284 284 284 284 284 283 282 281 280 279 278 277 276 275 274 273 272 272 271 270 269
289 292 294 296 295 296 297 298 296 293 292 290 288 287 286 285 285 285 286 287 287 287 286 286 286 286 286 286 284 282 281 280 279 278 277 276 275 274 273 272 270 269 269
288 290 294 296 296 296 296 295 293 291 291 290 289 289 290 290 290 290 290 290 290 290 291 291 291 290 289 287 286 285 284 283 283 281 280 278 276 274 273 271 271 270 269
294 297 299 297 297 297 296 295 294 293 292 291 291 289 289 291 292 293 293 293 293 293 293 291 290 289 289 288 288 287 286 284 283 281 280 277 275 273 271 270 268 267 267
298 298 298 298 299 299 298 297 297 296 297 297 296 295 293 292 291 291 291 291 291 291 290 289 289 289 290 290 290 289 287 285 284 283 282 280 277 276 274 272 270 269 267
296 297 299 300 300 299 299 299 299 299 299 300 301 301 301 300 298 295 293 292 292 292 292 293 294 294 293 292 291 290 288 286 285 284 282 280 278 276 275 272 270 268 266
297 298 298 299 299 300 301 302 303 303 302 302 301 301 300 300 299 299 298 296 296 295 296 296 297 297 297 296 294 294 293 292 292 290 287 284 282 280 278 275 272 269 266
296 295 296 298 299 301 303 304 304 303 303 302 302 302 301 300 299 300 300 300 299 299 299 300 300 300 301 300 299 298 298 297 295 293 290 287 284 282 279 277 274 271 268
294 294 296 297 300 302 303 303 303 303 304 304 305 304 303 303 303 303 302 300 300 301 302 303 303 303 303 303 301 300 299 297 295 292 290 287 284 282 280 278 275 272 269
293 295 296 299 301 302 302 303 304 305 306 306 306 305 305 304 304 303 303 302 302 302 304 304 304 302 302 301 299 298 297 295 292 289 286 284 283 281 279 277 275 273 271
294 295 297 299 300 301 302 304 305 306 307 307 307 306 304 303 303 303 304 305 304 304 304 304 302 300 299 298 297 296 294 291 289 288 287 285 283 281 280 277 275 272 269
294 296 299 300 301 302 305 306 307 307 308 308 307 306 305 304 305 306 306 306 305 304 304 303 301 300 299 298 295 293 292 291 291 291 290 289 288 285 282 280 277 273 268
296 298 299 300 303 305 305 307 308 309 308 307 307 307 308 308 308 307 307 306 306 305 304 304 303 302 299 296 294 293 293 294 294 293 291 290 288 286 284 280 276 272 268
296 297 299 301 304 305 307 309 309 308 308 308 309 310 310 310 310 309 308 308 307 307 306 306 304 301 298 296 296 296 297 296 295 294 292 289 286 283 281 278 275 271 267
295 298 301 303 306 308 309 309 308 308 308 310 311 312 312 311 310 310 309 309 309 308 306 304 304 302 300 299 299 300 301 301 298 294 292 288 285 283 279 277 276 272 268
297 300 303 305 308 308 308 308 309 309 311 312 314 314 313 312 312 311 311 310 309 307 305 304 305 303 301 301 302 304 307 305 302 299 293 290 287 284 283 282 280 276 272
300 303 305 307 308 308 308 309 310 311 312 313 315 315 314 314 313 313 312 310 307 305 304 302 300 299 299 300 302 306 307 305 305 301 293 290 287 287 289 291 290 283 276
302 304 306 308 308 308 309 310 311 312 313 314 314 315 315 314 314 313 311 309 307 305 302 298 296 296 296 297 300 303 305 305 305 299 294 293 290 290 289 290 288 287 289
304 306 308 308 308 309 311 312 312 313 315 315 315 315 315 316 314 312 311 309 307 304 300 297 295 295 296 298 301 305 309 311 310 304 304 309 299 293 289 287 290 304 323
307 308 308 308 310 312 312 312 314 316 316 316 316 317 317 316 314 314 312 311 310 308 303 299 296 295 298 302 306 313 317 321 320 315 323 324 314 308 297 297 308 331 331
307 308 309 311 312 312 312 314 316 317 317 318 319 319 318 316 317 316 316 316 316 314 311 307 303 304 309 312 317 322 325 328 324 317 328 334 334 327 314 307 321 315 322
308 310 311 312 313 314 316 316 317 318 320 320 320 319 318 318 319 318 319 322 325 325 322 318 315 317 320 323 325 329 334 337 337 329 330 326 324 328 313 297 302 319 328
Height
5807 5803 5800 5797 5795 5794 5792 5789 5787 5783 5779 5776 5773 5771 5768 5765 5763 5761 5759 5757 5754 5752 5749 5747 5745 5743 5741 5740 5737 5736 5734 5731 5730 5729 5728 5727 5726 5726 5725 5725 5724 5724 5725
5801 5797 5794 5792 5789 5787 5785 5783 5779 5776 5773 5770 5767 5764 5762 5759 5757 5754 5751 5749 5746 5744 5741 5739 5736 5734 5731 5729 5727 5725 5723 5720 5718 5717 5717 5716 5715 5713 5714 5714 5713 5712 5712
5794 5791 5789 5787 5784 5782 5779 5776 5772 5769 5766 5763 5760 5757 5754 5752 5750 5747 5744 5740 5738 5735 5732 5729 5726 5724 5721 5718 5716 5713 5710 5708 5706 5704 5703 5702 5701 5700 5699 5699 5698 5697 5698
5786 5784 5783 5781 5778 5775 5772 5769 5766 5762 5759 5756 5752 5749 5746 5744 5741 5738 5735 5732 5729 5725 5722 5719 5715 5712 5710 5706 5702 5699 5697 5694 5691 5690 5688 5686 5684 5684 5683 5682 5681 5680 5681
5780 5778 5776 5773 5771 5768 5765 5761 5758 5754 5751 5748 5745 5742 5738 5735 5732 5729 5725 5722 5718 5715 5712 5708 5704 5700 5696 5692 5688 5685 5682 5679 5676 5673 5671 5668 5665 5664 5663 5663 5662 5661 5661
5773 5771 5769 5766 5763 5760 5757 5753 5749 5745 5743 5740 5737 5733 5729 5726 5723 5720 5715 5711 5707 5703 5699 5694 5690 5685 5680 5675 5670 5667 5664 5660 5657 5655 5652 5648 5645 5644 5642 5640 5640 5640 5640
5767 5764 5762 5758 5755 5751 5747 5743 5739 5735 5732 5730 5728 5724 5720 5716 5713 5709 5704 5699 5694 5690 5684 5678 5672 5667 5661 5656 5650 5646 5642 5638 5635 5633 5630 5627 5624 5623 5621 5619 5618 5617 5616
5760 5757 5754 5750 5746 5741 5737 5733 5729 5726 5721 5719 5717 5715 5713 5709 5704 5698 5692 5686 5681 5676 5669 5662 5656 5649 5643 5637 5632 5626 5621 5616 5613 5609 5605 5601 5599 5597 5595 5594 5593 5592 5592
5752 5748 5745 5741 5736 5731 5727 5723 5720 5717 5712 5707 5703 5700 5698 5695 5694 5691 5683 5675 5668 5662 5655 5647 5640 5633 5626 5619 5612 5606 5600 5594 5589 5584 5579 5574 5571 5568 5565 5563 5562 5561 5561
5744 5740 5735 5731 5726 5722 5718 5714 5710 5706 5702 5697 5691 5684 5678 5673 5669 5669 5668 5660 5653 5646 5638 5630 5622 5614 5606 5599 5591 5584 5576 5570 5563 5556 5550 5545 5541 5537 5534 5532 5531 5529 5529
5734 5730 5726 5721 5718 5713 5709 5704 5700 5695 5690 5685 5680 5674 5666 5658 5648 5642 5640 5638 5633 5627 5620 5612 5602 5592 5583 5575 5566 5557 5548 5540 5531 5523 5516 5510 5505 5500 5497 5496 5496 5495 5495
5725 5721 5717 5713 5709 5705 5700 5695 5690 5684 5678 5670 5664 5657 5650 5642 5635 5627 5621 5615 5608 5602 5595 5588 5578 5567 5557 5546 5536 5524 5514 5505 5495 5485 5477 5469 5462 5457 5455 5453 5453 5452 5452
5716 5712 5708 5705 5700 5696 5691 5685 5679 5672 5664 5656 5648 5641 5632 5623 5615 5606 5599 5594 5589 5583 5575 5564 5550 5536 5524 5512 5501 5487 5476 5466 5455 5445 5436 5427 5421 5415 5412 5409 5407 5405 5408
5709 5704 5700 5695 5691 5686 5681 5674 5667 5660 5651 5642 5633 5624 5616 5608 5599 5588 5578 5568 5563 5560 5555 5543 5527 5511 5498 5484 5470 5453 5440 5428 5417 5407 5398 5392 5387 5381 5377 5375 5371 5369 5370
5700 5695 5691 5686 5681 5675 5669 5662 5655 5646 5636 5626 5618 5609 5601 5592 5583 5571 5559 5546 5534 5528 5530 5522 5501 5486 5470 5453 5438 5421 5405 5392 5381 5373 5364 5359 5354 5350 5346 5344 5341 5338 5338
5689 5685 5681 5676 5669 5663 5656 5649 5640 5631 5621 5611 5602 5594 5584 5575 5565 5552 5539 5525 5508 5494 5493 5495 5474 5454 5436 5418 5402 5388 5373 5360 5352 5347 5337 5330 5325 5320 5317 5315 5311 5308 5308
5680 5676 5670 5664 5657 5651 5643 5635 5626 5616 5606 5596 5586 5577 5566 5555 5544 5530 5517 5502 5485 5463 5447 5451 5436 5415 5397 5382 5373 5363 5351 5338 5326 5321 5313 5305 5298 5293 5289 5287 5283 5281 5280
5670 5665 5659 5653 5646 5638 5629 5620 5610 5600 5590 5580 5570 5559 5547 5535 5521 5506 5490 5474 5457 5436 5412 5400 5399 5382 5369 5357 5348 5341 5333 5322 5308 5297 5287 5280 5273 5269 5265 5261 5258 5255 5254
5660 5654 5647 5640 5633 5624 5614 5604 5594 5584 5574 5563 5551 5539 5525 5512 5497 5480 5461 5443 5424 5404 5383 5366 5364 5358 5347 5337 5328 5322 5313 5300 5287 5275 5267 5258 5252 5248 5243 5239 5236 5233 5233
5649 5642 5635 5627 5618 5608 5598 5588 5578 5568 5557 5544 5531 5516 5501 5485 5468 5450 5430 5410 5389 5372 5359 5347 5340 5335 5327 5318 5308 5300 5293 5280 5269 5258 5250 5243 5238 5232 5226 5221 5218 5216 5215
5637 5630 5623 5613 5602 5592 5582 5572 5562 5551 5539 5525 5510 5493 5476 5457 5438 5418 5396 5376 5358 5347 5338 5329 5322 5316 5309 5301 5292 5283 5274 5265 5259 5247 5238 5233 5224 5218 5212 5206 5204 5201 5200
5625 5617 5608 5597 5586 5576 5566 5556 5545 5533 5519 5504 5488 5470 5450 5430 5410 5388 5366 5348 5334 5322 5313 5304 5297 5293 5288 5281 5274 5267 5259 5251 5246 5239 5223 5222 5210 5206 5199 5196 5193 5191 5189
5612 5602 5591 5581 5571 5561 5551 5540 5528 5514 5499 5482 5463 5444 5424 5402 5379 5360 5344 5328 5315 5302 5289 5279 5275 5272 5267 5263 5258 5253 5246 5238 5232 5225 5216 5212 5199 5192 5188 5186 5185 5184 5183
5597 5587 5577 5567 5557 5546 5535 5523 5510 5495 5479 5460 5438 5416 5395 5374 5355 5339 5322 5309 5296 5282 5270 5262 5258 5255 5254 5250 5245 5241 5236 5231 5224 5217 5209 5202 5193 5186 5182 5181 5180 5179 5178
5582 5573 5562 5552 5543 5531 5519 5506 5492 5477 5458 5437 5415 5391 5368 5351 5336 5319 5303 5291 5279 5267 5258 5253 5249 5246 5243 5240 5236 5233 5229 5224 5219 5211 5203 5197 5190 5184 5180 5178 5178 5177 5174
5569 5560 5550 5539 5527 5515 5501 5486 5471 5455 5437 5416 5395 5372 5352 5333 5318 5304 5291 5280 5270 5262 5255 5250 5246 5242 5239 5235 5230 5225 5221 5217 5212 5205 5198 5193 5187 5183 5179 5177 5175 5174 5171